Simultaneous Nadir Overpasses (SNOs) Predictions

Prediction of SNOs between GOES-16 and NOAA-20 Satellite Orbit:

Table of predicted SNOs for the next 14.0 days since TLE Epoch: 1/24/2025
Index Date Time (GOES-16) GOES-16 Lat,Lon NOAA-20 Lat,Lon Distance(km) Time Diff (sec)
1 01/25/2025 06:15:53 0.00, -75.19 -0.38, -73.50 192.40 80
2 01/26/2025 18:37:49 -0.01, -75.21 -0.81, -78.81 410.10 80
3 01/27/2025 18:21:44 -0.01, -75.21 0.20, -74.27 106.67 80
4 01/29/2025 06:43:33 0.01, -75.21 0.99, -79.54 494.33 80
5 01/30/2025 06:22:08 0.01, -75.22 -0.02, -75.01 22.62 80
6 02/01/2025 18:25:20 -0.00, -75.25 -0.13, -75.79 61.82 80
7 02/02/2025 18:09:16 -0.00, -75.26 0.89, -71.26 456.01 80
8 02/04/2025 06:31:04 0.00, -75.28 0.28, -76.53 143.31 80
9 02/05/2025 06:09:39 0.00, -75.29 -0.74, -72.00 374.37 80
10 02/06/2025 18:31:35 0.00, -75.31 -0.47, -77.30 227.06 80
11 02/07/2025 18:15:30 0.01, -75.33 0.57, -72.77 291.08 80
